This demonstration page uses our WeatherBlox Daily Observations layout. Learn more.

Left ArrowRight Arrow

39.51506, -84.39828

Hourly Observations for February 5, 2017

Temp ( °F °C ) Dew Point ( °F °C ) Humidity (%) Winds ( mph kmh ) Pressure ( in mb ) Visibility ( mi km ) Precip ( " mm )
12:53 am 00:53 Cloudy 32 0 11 -11.7 41 41 S 10 17 30.04 1017 10 16 0.00 0.00
1:53 am 01:53 Cloudy 32 0 11 -11.7 41 41 S 8 13 30.01 1016 10 16 0.00 0.00
2:53 am 02:53 Cloudy 33 0.6 12 -11.1 42 42 SSW 8 13 30.00 1016 10 16 0.00 0.00
3:53 am 03:53 Cloudy 37 2.8 14 -10 39 39 SW 12 19 29.99 1016 10 16 0.00 0.00
4:53 am 04:53 Cloudy 38 3.3 17 -8.3 43 43 WSW 14 22 29.98 1015 10 16 0.00 0.00
5:53 am 05:53 Cloudy 38 3.3 19 -7.2 46 46 SW 10 17 30.00 1016 10 16 0.00 0.00
6:53 am 06:53 Cloudy 38 3.3 21 -6.1 51 51 SW 9 15 29.99 1016 10 16 0.00 0.00
7:53 am 07:53 Sunny 36 2.2 22 -5.6 57 57 SW 12 19 30.01 1016 10 16 0.00 0.00
8:53 am 08:53 Sunny 38 3.3 22 -5.6 52 52 SW 15 24 30.01 1016 10 16 0.00 0.00
9:53 am 09:53 Sunny 39 3.9 23 -5 53 53 WSW 15 24 30.02 1017 10 16 0.00 0.00
10:53 am 10:53 Sunny 42 5.6 25 -3.9 51 51 WSW 15 24 30.01 1016 10 16 0.00 0.00
11:53 am 11:53 Sunny 44 6.7 26 -3.3 49 49 SW 15 24 30.01 1016 10 16 0.00 0.00
12:53 pm 12:53 Sunny 46 7.8 27 -2.8 47 47 SW 17 28 30.00 1016 10 16 0.00 0.00
1:53 pm 13:53 Sunny 48 8.9 28 -2.2 46 46 W 16 26 29.99 1016 10 16 0.00 0.00
2:53 pm 14:53 Sunny 48 8.9 28 -2.2 46 46 W 14 22 29.98 1015 10 16 0.00 0.00
3:53 pm 15:53 Sunny 49 9.4 28 -2.2 44 44 WSW 14 22 30.00 1016 10 16 0.00 0.00
4:53 pm 16:53 Sunny 48 8.9 28 -2.2 46 46 W 9 15 30.02 1017 10 16 0.00 0.00
5:53 pm 17:53 Sunny 46 7.8 28 -2.2 50 50 W 9 15 30.05 1018 10 16 0.00 0.00
6:53 pm 18:53 Clear 43 6.1 28 -2.2 56 56 WSW 5 7 30.08 1019 10 16 0.00 0.00
7:53 pm 19:53 Clear 41 5 28 -2.2 60 60 W 5 7 30.10 1019 10 16 0.00 0.00
8:53 pm 20:53 Clear 39 3.9 28 -2.2 65 65 WNW 3 6 30.11 1020 10 16 0.00 0.00
9:53 pm 21:53 Clear 37 2.8 27 -2.8 67 67 NNW 3 6 30.13 1020 10 16 0.00 0.00
10:53 pm 22:53 Clear 35 1.7 27 -2.8 72 72 Calm 30.14 1021 10 16 0.00 0.00
11:53 pm 23:53 Clear 32 0 26 -3.3 79 79 Calm 30.14 1021 10 16 0.00 0.00

Powered by AerisWeather